Weather in Polyarny

Russia / Chukotka Autonomous Okrug     69°09′44″N   178°42′43″E
temp.,
°C
wind,
m/s
gust,
m/s
humid.,
%
clouds,
%
prec.,
mm/h
press.,
hPa
HPBL,
m
13 april, tue
tue1300:00−22w337899 0.0 102124
03:00−24wsw327797 0.0 102016
06:00−20w3377100 0.0 101942
09:00−16wnw487699 0.0 1018353
12:00−14nw5974100 0.0 1018452
15:00−14nw5878100 0.0 1017441
18:00−16nw4688100 0.0 1018137
21:00−19wnw3492100 0.0 101967
14 april, wed
wed1400:00−19wnw3492100 0.0 102075
03:00−19wnw3491100 0.0 102075
06:00−19wnw2388100 0.0 1022101
09:00−16nw347678 0.0 1022203
12:00−15nw347874 0.0 1023243
15:00−15nw338363 0.0 1024205
18:00−19wnw229566 0.0 102511
21:00−23wsw219761 0.0 10269
15 april, thu
thu1500:00−24sw229431 0.0 10269
03:00−23sw218965 0.0 10269
06:00−21ssw118984 0.0 102611
09:00−15ese228186 0.0 1025114
12:00−13ese238185 0.0 1024177
15:00−12ese23869 0.0 1024159
18:00−14se339614 0.0 102333
21:00−17s339715 0.0 102319
16 april, fri
fri1600:00−15s338917 0.0 102126
03:00−12s4482100 0.0 101840
06:00−9sse4581100 0.0 101657
09:00−4s3589100 1.0 1014158
12:00−1sse4976100 1.2 1012450
15:00−2se3581100 0.0 1011153
18:00−3ssw2287100 0.0 101118
21:00−9sw228887 0.0 101310
17 april, sat
sat1700:00−12wsw328777 0.0 101412
03:00−13sw338669 0.0 101613
06:00−12sw33825 0.0 101820
09:00−7ssw33815 0.0 101953
12:00−4s237893 0.0 1019134
15:00−2se348095 0.0 1017188
18:00−3se3487100 0.0 101474
21:00−5ssw2287100 0.0 101315